Weather observations for the past three days for
Flemingsburg Fleming-Mason Airport
Imperial (Metric)
Date Time (edt) Wind (mph) Vis. (mi.) Weather Sky Cond. Temperature (ºF) Relative Humidity Wind Chill (°F) Heat Index (°F) Pressure Precipitation (in)
Air Dwpt 6 hour altimeter (in) sea level (mb) 1 hr 3 hr 6 hr
Max. Min.
15 06:55 W 5 10.00 Fair CLR 71.1 66.2 85% 30.04 0.0
15 06:35 SW 7 10.00 Fair CLR 70.9 66.2 85% 30.04 0.0
15 06:15 SW 7 10.00 Fair CLR 70.9 65.8 84% 30.03 0.0
15 05:55 SW 7 10.00 Fair CLR 70.9 65.8 84% 30.03 0.0
15 05:35 SW 6 10.00 Fair CLR 70.5 65.7 85% 30.03 0.0
15 05:15 W 3 10.00 Fair CLR 70.5 65.7 85% 30.03 0.0
15 04:55 Calm 10.00 Fair CLR 71.6 65.5 81% 30.02 0.0
15 04:35 SW 7 10.00 Fair CLR 72.5 65.7 79% 30.02 0.0
15 04:15 SW 6 10.00 Fair CLR 73 65.7 78% 30.02 0.0
15 03:55 SW 7 10.00 Fair CLR 72.7 65.5 78% 30.01 0.0
15 03:35 SW 6 10.00 Fair CLR 72.1 65.7 80% 30.03 0.0
15 03:15 SW 8 10.00 Fair CLR 71.8 65.7 81% 30.03 0.0
15 02:55 SW 7 10.00 Fair CLR 71.6 65.7 82% 30.03 0.0
15 02:35 SW 5 10.00 Fair CLR 71.4 65.8 83% 30.04 0.0
15 02:15 SW 5 10.00 Fair CLR 71.2 66 84% 30.04 0.0
15 01:55 SW 5 10.00 Fair CLR 70.7 65.8 78.8 70.7 85% 30.05 0.0
15 01:35 SW 3 10.00 Fair CLR 70.9 65.8 84% 30.04 0.0
15 01:15 SW 6 10.00 Fair CLR 71.4 65.7 82% 30.04 0.0
15 00:55 SW 6 10.00 Fair CLR 71.8 65.8 82% 30.04 0.0
15 00:35 S 6 10.00 Fair CLR 72 65.8 81% 30.03 0.0
15 00:15 SW 6 10.00 Fair CLR 72.5 65.8 80% 30.03 0.0
14 23:55 S 8 10.00 Fair CLR 72.1 66 81% 30.04 0.0
14 23:35 SW 6 10.00 Fair CLR 72.1 66.2 82% 30.04 0.0
14 23:15 SW 7 10.00 Fair CLR 72.7 66.2 80% 30.05 0.0
14 22:55 SW 7 10.00 Fair CLR 73 66.2 79% 30.05 0.0
14 22:35 SW 7 10.00 Fair CLR 73.4 66.4 79% 30.05 0.0
14 22:15 SW 6 10.00 Fair CLR 73.9 66.6 78% 30.06 0.0
14 21:55 SW 6 10.00 Fair CLR 74.3 66.6 77% 30.06 0.0
14 21:35 SW 5 10.00 Fair CLR 74.1 66.6 77% 30.06 0.0
14 21:15 SW 6 10.00 Fair CLR 75 66.6 75% 76 30.06 0.0
14 20:55 W 5 10.00 Fair CLR 75.2 66.4 74% 76 30.06 0.0
14 20:35 W 6 10.00 Fair CLR 77.4 66.4 69% 79 30.06 0.0
14 20:15 SW 3 10.00 Fair CLR 78.3 66.4 67% 80 30.07 0.0
14 19:55 S 6 10.00 Fair CLR 79 66.4 93.9 76.5 65% 81 30.07 0.0
14 19:35 S 5 10.00 Fair CLR 79.9 66.6 64% 82 30.07 0.0
14 19:15 S 6 10.00 Fair CLR 79.7 66.2 63% 82 30.07 0.0
14 18:55 Calm 10.00 Fair CLR 78.4 65.8 65% 80 30.08 0.0
14 18:35 NE 7 G 17 10.00 Fair CLR 76.5 65.7 69% 78 30.08 0.0
14 18:15 N 9 G 24 10.00 Fair CLR 77 65.3 67% 79 30.12 0.0
14 17:55 N 12 G 20 10.00 Partly Cloudy SCT090 78.1 63.9 62% 80 30.14 0.0
14 17:35 N 18 G 28 10.00 Overcast SCT050 BKN075 OVC100 79.9 61.7 54% 81 30.13 0.0
14 17:15 N 18 G 32 10.00 Mostly Cloudy SCT075 BKN100 88.5 66.7 49% 91 30.12 0.0
14 16:55 NW 10 10.00 Partly Cloudy SCT120 90.7 66 44% 93 30.1 0.0
14 16:35 NW 8 10.00 Mostly Cloudy SCT055 BKN120 90.5 65.1 43% 93 30.09 0.0
14 16:15 NW 10 10.00 Mostly Cloudy SCT055 BKN075 BKN110 91.6 65.5 42% 94 30.1 0.0
14 15:55 W 16 10.00 Mostly Cloudy SCT065 SCT080 BKN110 92.3 65.8 42% 95 30.1 0.0
14 15:35 W 13 G 16 10.00 Partly Cloudy SCT050 SCT065 SCT075 93 66 41% 96 30.1 0.0
14 15:15 W 10 G 17 10.00 Mostly Cloudy SCT050 BKN070 BKN095 92.5 66.4 42% 96 30.09 0.0
14 14:55 W 8 G 16 10.00 Mostly Cloudy SCT050 BKN070 91.6 66.9 44% 95 30.1 0.0
14 14:35 W 12 G 18 10.00 Mostly Cloudy SCT050 BKN055 91.4 67.1 45% 95 30.1 0.0
14 14:15 W 8 G 17 10.00 Partly Cloudy SCT048 SCT055 SCT070 92.8 66.6 42% 96 30.11 0.0
14 13:55 W 12 10.00 Mostly Cloudy SCT048 BKN065 BKN070 90.9 67.5 92.7 72 46% 94 30.12 0.0
14 13:35 W 9 10.00 Partly Cloudy SCT046 SCT050 90.9 67.3 46% 94 30.13 0.0
14 13:15 W 9 10.00 Partly Cloudy SCT042 SCT050 89.2 67.3 48% 93 30.13 0.0
14 12:55 W 9 10.00 Mostly Cloudy BKN040 BKN045 BKN050 87.3 67.1 51% 90 30.15 0.0
14 12:35 W 9 10.00 Mostly Cloudy BKN038 BKN045 BKN050 87.6 68 52% 91 30.15 0.0
14 12:15 W 10 10.00 Mostly Cloudy SCT035 BKN041 87.3 68.2 53% 91 30.16 0.0
14 11:55 W 9 10.00 Mostly Cloudy BKN033 BKN039 85.8 69.3 58% 90 30.16 0.0
14 11:35 NW 12 10.00 Mostly Cloudy BKN031 BKN044 84.6 68.9 59% 88 30.16 0.0
14 11:15 W 12 G 18 10.00 Partly Cloudy SCT031 86.7 69.4 57% 91 30.16 0.0
14 10:55 W 8 10.00 Fair CLR 86 69.1 57% 90 30.16 0.0
14 10:35 W 8 10.00 Fair CLR 83.5 67.6 59% 86 30.17 0.0
14 10:15 W 8 10.00 Fair CLR 83.7 66.7 57% 86 30.17 0.0
14 09:55 W 6 10.00 Fair CLR 82 67.5 61% 85 30.17 0.0
14 09:35 W 3 10.00 Fair CLR 79.3 67.8 68% 82 30.17 0.0
14 09:15 SW 5 10.00 Fair CLR 77.2 67.3 72% 79 30.18 0.0
14 08:55 SW 5 10.00 Fair CLR 75.7 67.5 76% 77 30.17 0.0
14 08:35 SW 6 10.00 Fair CLR 74.1 67.3 79% 30.17 0.0
14 08:15 SW 3 10.00 Fair CLR 73.4 66.7 80% 30.17 0.0
14 07:55 S 3 10.00 Fair CLR 71.8 66.4 72.3 66.6 83% 30.18 0.0
14 07:35 Calm 10.00 Fair CLR 70.3 65.8 86% 30.18 0.0
14 07:15 SW 3 10.00 Fair CLR 68.9 65.5 89% 30.18 0.0
14 06:55 S 3 10.00 Fair CLR 66.9 64.4 92% 30.18 0.0
14 06:35 Calm 10.00 Fair CLR 66.9 64.2 91% 30.17 0.0
14 06:15 Calm 10.00 Fair CLR 67.1 64.6 92% 30.17 0.0
14 05:55 W 3 10.00 Fair CLR 66.6 64.4 93% 30.17 0.0
14 05:35 W 5 10.00 Fair CLR 68 64.6 89% 30.16 0.0
14 05:15 SW 3 10.00 Fair CLR 67.8 64.6 89% 30.16 0.0
14 04:55 SW 5 10.00 Fair CLR 68.4 64.4 87% 30.15 0.0
14 04:35 SW 5 10.00 Fair CLR 68.9 64.4 86% 30.14 0.0
14 04:15 SW 6 10.00 Fair CLR 68.9 64.2 85% 30.14 0.0
14 03:55 SW 5 10.00 Fair CLR 69.3 64 84% 30.15 0.0
14 03:35 SW 7 10.00 Fair CLR 69.8 64.2 83% 30.15 0.0
14 03:15 SW 5 10.00 Fair CLR 70.3 64 81% 30.15 0.0
14 02:55 SW 3 10.00 Fair CLR 71.1 63.9 78% 30.17 0.0
14 02:35 W 3 10.00 Fair CLR 72.3 63.7 74% 30.17 0.0
14 02:15 W 3 10.00 Fair CLR 71.8 64 77% 30.17 0.0
14 01:55 W 5 10.00 Fair CLR 70.3 64.4 85.1 69.6 82% 30.18 0.0
14 01:35 W 5 10.00 Fair CLR 70.5 64.6 82% 30.19 0.0
14 01:15 NW 6 10.00 Fair CLR 72.3 64.6 77% 30.19 0.0
14 00:55 NW 3 10.00 Fair CLR 72.5 64.4 76% 30.19 0.0
14 00:35 W 5 10.00 Fair CLR 73.4 64.4 74% 30.19 0.0
14 00:15 W 5 10.00 Fair CLR 73.4 64.4 74% 30.18 0.0
13 23:55 W 5 10.00 Fair CLR 74.5 64 70% 30.17 0.0
13 23:35 W 5 10.00 Fair CLR 76.1 64.2 67% 78 30.17 0.0
13 23:15 W 3 10.00 Fair CLR 77 63.9 64% 79 30.17 0.0
13 22:55 Calm 10.00 Fair CLR 77.4 63.9 63% 79 30.17 0.0
13 22:35 W 3 10.00 Fair CLR 77 64.2 65% 79 30.17 0.0
13 22:15 NW 3 10.00 Fair CLR 79 64.4 61% 81 30.17 0.0
13 21:55 W 3 10.00 Fair CLR 78.8 64.8 62% 81 30.18 0.0
13 21:35 NW 5 10.00 Fair CLR 79.9 64.9 60% 82 30.18 0.0
13 21:15 NW 5 10.00 Fair CLR 80.4 64.9 59% 82 30.17 0.0
13 20:55 NW 5 10.00 Fair CLR 82.6 64.4 54% 84 30.17 0.0
13 20:35 NW 5 10.00 Fair CLR 83.5 64.4 53% 85 30.17 0.0
13 20:15 NW 5 10.00 Fair CLR 84.2 64.2 51% 86 30.17 0.0
13 19:55 NW 5 10.00 Fair CLR 85.1 63.7 93.4 85.1 49% 86 30.17 0.0
13 19:35 NW 6 10.00 Fair CLR 86.2 62.2 45% 87 30.17 0.0
13 19:15 N 5 10.00 Fair CLR 87.8 61.5 41% 88 30.17 0.0
13 18:55 N 6 10.00 Fair CLR 89.2 60.4 38% 89 30.17 0.0
13 18:35 NW 7 10.00 Fair CLR 89.1 60.1 38% 89 30.17 0.0
13 18:15 NW 10 10.00 Fair CLR 90.7 59.7 35% 90 30.17 0.0
13 17:55 NW 9 10.00 Fair CLR 91.4 59 34% 91 30.17 0.0
13 17:35 W 7 10.00 Fair CLR 90.9 57.7 33% 90 30.17 0.0
13 17:15 NW 9 10.00 Fair CLR 91.6 56.7 31% 90 30.17 0.0
13 16:55 NW 7 10.00 Fair CLR 89.6 57.2 33% 88 30.17 0.0
13 16:35 W 7 10.00 Fair CLR 92.3 57.6 31% 91 30.17 0.0
13 16:15 W 12 10.00 Fair CLR 92.7 57.9 31% 92 30.18 0.0
13 15:55 NW 6 G 16 10.00 Partly Cloudy SCT065 92.1 55.6 29% 90 30.19 0.0
13 15:35 W 10 10.00 Partly Cloudy SCT065 91 57.7 33% 90 30.19 0.0
13 15:15 W 10 10.00 Partly Cloudy SCT065 90.5 59 35% 90 30.2 0.0
13 14:55 W 9 10.00 Fair CLR 90.5 59.7 36% 90 30.2 0.0
13 14:35 W 6 10.00 Fair CLR 89.6 58.8 35% 89 30.2 0.0
13 14:15 NW 7 10.00 Fair CLR 88.7 58.8 37% 88 30.2 0.0
13 13:55 W 7 10.00 Partly Cloudy SCT050 SCT080 89.4 62.4 91.8 72.5 41% 90 30.21 0.0
13 13:35 W 6 10.00 Partly Cloudy SCT050 87.6 61.7 42% 88 30.21 0.0
13 13:15 W 8 10.00 Partly Cloudy SCT049 90.3 61.9 39% 91 30.21 0.0
13 12:55 W 9 10.00 Mostly Cloudy SCT045 SCT055 BKN070 89.6 63.7 42% 91 30.22 0.0
13 12:35 NW 7 10.00 Partly Cloudy SCT039 SCT045 SCT055 85.6 64.8 50% 87 30.22 0.0
13 12:15 NW 5 10.00 Partly Cloudy SCT039 SCT050 84.7 66 54% 87 30.22 0.0
13 11:55 W 5 10.00 Partly Cloudy SCT043 SCT050 84.6 66.2 54% 87 30.22 0.0
13 11:35 W 6 10.00 Partly Cloudy SCT035 SCT045 86.5 66 51% 89 30.22 0.0
13 11:15 Calm 10.00 Partly Cloudy SCT033 SCT045 SCT050 84 66.9 57% 87 30.22 0.0
13 10:55 SW 3 10.00 Partly Cloudy SCT033 SCT045 SCT055 83.5 67.5 59% 86 30.22 0.0
13 10:35 Calm 10.00 Fair CLR 84 68.4 59% 87 30.23 0.0
13 10:15 NW 3 10.00 Fair CLR 82.8 67.5 60% 86 30.23 0.0
13 09:55 Calm 10.00 Fair CLR 81.7 67.6 63% 84 30.23 0.0
13 09:35 Calm 10.00 Fair CLR 81.1 69.4 68% 84 30.23 0.0
13 09:15 Calm 10.00 Fair CLR 79.7 69.3 71% 83 30.23 0.0
13 08:55 Calm 10.00 Fair CLR 77.5 70 78% 79 30.23 0.0
13 08:35 Calm 10.00 Fair CLR 75.2 69.3 82% 76 30.22 0.0
13 08:15 Calm 10.00 Fair CLR 73.9 68.7 84% 30.22 0.0
13 07:55 Calm 10.00 Fair CLR 72.5 68 72.5 67.5 86% 30.22 0.0
13 07:35 Calm 10.00 Fair CLR 70.5 67.3 90% 30.21 0.0
13 07:15 Calm 10.00 Fair CLR 69.3 66.9 92% 30.21 0.0
13 06:55 SW 3 7.00 Fair CLR 68 66.6 95% 30.21 0.0
13 06:35 Calm 5.00 Fog/Mist CLR 67.6 66.6 96% 30.2 0.0
13 06:15 Calm 7.00 Fair CLR 67.6 66.6 96% 30.2 0.0
13 05:55 Calm 10.00 Fair CLR 68.7 67.3 95% 30.19 0.0
13 05:35 Calm 10.00 Fair CLR 68.7 67.3 95% 30.18 0.0
13 05:15 Calm 7.00 Fair CLR 68 65.7 92% 30.18 0.0
13 04:55 Calm 10.00 Fair CLR 68.5 67.3 96% 30.17 0.0
13 04:35 Calm 10.00 Fair CLR 68.9 67.5 95% 30.17 0.0
13 04:15 Calm 10.00 Fair CLR 69.1 67.1 93% 30.16 0.0
13 03:55 Calm 10.00 Fair CLR 69.8 67.1 91% 30.16 0.0
13 03:35 NW 3 10.00 Fair CLR 70.7 67.6 90% 30.16 0.0
13 03:15 NW 5 10.00 Fair CLR 70 67.1 91% 30.16 0.0
13 02:55 NW 5 10.00 Fair CLR 70 66.7 90% 30.17 0.0
13 02:35 NW 3 10.00 Fair CLR 70 66.7 90% 30.17 0.0
13 02:15 W 3 10.00 Fair CLR 70.2 67.1 90% 30.17 0.0
13 01:55 Calm 10.00 Partly Cloudy SCT080 71.2 66.7 82.9 69.4 86% 30.18 0.0
13 01:35 SW 5 10.00 Partly Cloudy SCT080 71.4 66.7 85% 30.17 0.0
13 01:15 S 3 10.00 Fair CLR 69.8 66.9 91% 30.18 0.0
13 00:55 W 5 10.00 Partly Cloudy SCT070 SCT080 69.8 67.5 92% 30.17 0.0
13 00:35 W 5 10.00 Partly Cloudy SCT060 70.7 67.1 88% 30.17 0.0
13 00:15 Calm 10.00 Fair CLR 73.6 67.1 80% 30.17 0.0
12 23:55 Calm 10.00 Fair CLR 73.6 67.1 80% 30.17 0.0
12 23:35 Calm 10.00 Fair CLR 72 67.1 85% 30.16 0.0
12 23:15 Calm 10.00 Fair CLR 73.9 67.1 79% 30.16 0.0
12 22:55 Calm 10.00 Fair CLR 73.4 67.3 81% 30.16 0.0
12 22:35 Calm 10.00 Fair CLR 73.4 67.3 81% 30.16 0.0
12 22:15 Calm 10.00 Fair CLR 73.9 67.3 80% 30.16 0.0
12 21:55 E 5 10.00 Fair CLR 74.8 67.3 77% 30.15 0.0
12 21:35 SE 5 10.00 Fair CLR 75.4 67.1 76% 77 30.15 0.0
12 21:15 SE 7 10.00 Partly Cloudy SCT075 76.6 66.7 72% 78 30.15 0.0
12 20:55 SE 7 10.00 Partly Cloudy SCT075 80.2 67.8 66% 83 30.15 0.0
12 20:35 Calm 10.00 Fair CLR 81.9 68.7 65% 85 30.13 0.0
12 20:15 Calm 10.00 Partly Cloudy SCT080 82.8 68.2 62% 86 30.13 0.0
12 19:55 N 5 10.00 Fair CLR 82 68 92.3 81.9 63% 85 30.12 0.0
12 19:35 N 6 10.00 Fair CLR 82.8 68 61% 86 30.12 0.0
12 19:15 NW 3 10.00 Partly Cloudy SCT070 SCT080 SCT120 84.4 68 58% 88 30.11 0.0
12 18:55 N 9 10.00 Overcast SCT070 BKN080 OVC110 86.7 67.3 52% 90 30.11 0.0
12 18:35 N 9 10.00 Mostly Cloudy BKN110 86 66.6 52% 89 30.11 0.0
12 18:15 NW 6 10.00 Partly Cloudy SCT100 SCT120 86.9 64.2 47% 88 30.1 0.0
12 17:55 NW 8 10.00 Partly Cloudy SCT060 SCT110 90.7 63.3 40% 92 30.1 0.0
12 17:35 Calm 10.00 Mostly Cloudy BKN060 BKN075 BKN110 90.9 62.8 39% 92 30.1 0.0
12 17:15 Calm 10.00 Overcast BKN060 BKN070 OVC100 90.7 62.2 39% 91 30.1 0.0
12 16:55 W 5 10.00 Partly Cloudy SCT065 SCT100 89.1 62.2 41% 90 30.1 0.0
12 16:35 Calm 10.00 Partly Cloudy SCT060 SCT075 SCT100 91.6 62.8 38% 92 30.1 0.0
12 16:15 N 3 10.00 Mostly Cloudy SCT075 BKN100 BKN120 89.4 63.3 42% 90 30.1 0.0
12 15:55 NW 3 10.00 Mostly Cloudy SCT055 BKN095 BKN120 87.8 62.8 43% 89 30.1 0.0
12 15:35 W 5 10.00 Mostly Cloudy BKN055 BKN070 BKN080 89.2 62.8 41% 90 30.11 0.0
12 15:15 Calm 10.00 Partly Cloudy SCT055 SCT070 SCT080 90.7 62.8 39% 92 30.11 0.0
12 14:55 W 7 10.00 Partly Cloudy SCT055 92.3 63.9 39% 94 30.12 0.0
12 14:35 SE 3 10.00 Fair CLR 89.6 63.1 41% 91 30.12 0.0
12 14:15 Calm 10.00 Fair CLR 90.3 63.1 40% 91 30.13 0.0
12 13:55 SW 7 10.00 Partly Cloudy SCT050 89.2 63.9 90.9 72 43% 91 30.14 0.0
12 13:35 S 5 10.00 Partly Cloudy SCT050 88.9 63.7 43% 90 30.15 0.0
12 13:15 SE 3 10.00 Fair CLR 87.8 62.6 43% 88 30.15 0.0
12 12:55 W 5 10.00 Fair CLR 87.6 63.7 45% 89 30.16 0.0
12 12:35 SW 5 10.00 Fair CLR 87.8 63.9 45% 89 30.16 0.0
12 12:15 S 5 10.00 Fair CLR 86.9 63.5 46% 88 30.17 0.0
12 11:55 S 3 10.00 Fair CLR 86.9 62.4 44% 88 30.16 0.0
12 11:35 W 5 10.00 Fair CLR 86.5 62.1 44% 87 30.16 0.0
12 11:15 SW 7 10.00 Fair CLR 86 61.9 44% 86 30.16 0.0
12 10:55 SW 5 10.00 Fair CLR 84.7 62.1 47% 85 30.16 0.0
12 10:35 S 6 10.00 Fair CLR 84 63.9 51% 85 30.16 0.0
12 10:15 S 6 10.00 Fair CLR 82.4 63.3 53% 84 30.15 0.0
12 09:55 S 3 10.00 Fair CLR 81.3 62.2 52% 82 30.15 0.0
12 09:35 S 5 10.00 Fair CLR 80.2 63.9 57% 82 30.15 0.0
12 09:15 S 3 10.00 Fair CLR 78.8 64.4 61% 81 30.15 0.0
12 08:55 Calm 10.00 Fair CLR 76.6 65.3 68% 78 30.14 0.0
12 08:35 SE 3 10.00 Fair CLR 74.7 66.2 75% 30.13 0.0
12 08:15 Calm 10.00 Fair CLR 72.9 66.4 80% 30.13 0.0
12 07:55 Calm 10.00 Fair CLR 71.8 66 71.8 67.6 82% 30.13 0.0
12 07:35 Calm 10.00 Fair CLR 69.6 65.8 88% 30.14 0.0
12 07:15 Calm 10.00 Fair CLR 68.5 65.3 89% 30.13 0.0
Date Time (edt) Wind (mph) Vis. (mi.) Weather Sky Cond. Air Dwpt Max. Min. Relative Humidity Wind Chill (°F) Heat Index (°F) altimeter (in) sea level (mb) 1 hr 3 hr 6 hr
6 hour
Temperature (ºF) Pressure Precipitation (in)